SCP
0 0 0 0 0 0 0 0 0 0 0 0 0 0 0 0 0 0 0 0 0 0 0 0 0 0 0 0 0 0 0 0 0 0 0 0 0 0 0 0 0 0 0
0 0 0 0 0 0 0 0 0 0 0 0 0 0 0 0 0 0 0 0 0 0 0 0 0 0 0 0 0 0 0 0 0 0 0 0 0 0 0 0 0 0 0
0 0 0 0 0 0 0 0 0 0 0 0 0 0 0 0 0 0 0 0 0 0 0 0 0 0 0 0 0 0 0 0 0 0 0 0 0 0 0 0 0 0 0
0 0 0 0 0 0 0 0 0 0 0 0 0 0 0 0 0 0 0 0 0 0 0 0 0 0 0 0 0 0 0 0 0 0 0 0 0 0 0 0 0 0 0
0 0 0 0 0 0 0 0 0 0 0 0 0 0 0 0 0 0 0 0 0 0 0 0 0 0 0 0 0 0 0 0 0 0 0 0 0 0 0 0 0 0 0
0 0 0 0 0 0 0 0 0 0 0 0 0 0 0 0 0 0 0 0 0 0 0 0 0 0 0 0 0 0 0 0 0 0 0 0 0 0 0 0 0 0 0
0 0 0 0 0 0 0 0 0 0 0 0 0 0 0 0 0 0 0 0 0 0 0 0 0 0 0 0 0 0 0 0 0 0 0 0 0 0 0 0 0 0 0
0 0 0 0 0 0 0 0 0 0 0 0 0 0 0 0 0 0 0 0 0 0 0 0 0 0 0 0 0 0 0 0 0 0 0 0 0 0 0 0 0 0 0
0 0 0 0 0 0 0 0 0 0 0 0 0 0 0 0 0 0 0 0 0 0 0 0 0 0 0 0 0 0 0 0 0 0 0 0 0 0 0 0 0 0 0
0 0 0 0 0 0 0 0 0 0 0 0 0 0 0 0 0 0 0 0 0 0 0 0 0 0 0 0 0 0 0 0 0 0 0 0 0 0 0 0 0 0 0
0 0 0 0 0 0 0 0 0 0 0 0 0 0 0 0 0 0 0 0 0 0 0 0 0 0 0 0 0 0 0 0 0 0 0 0 0 0 0 0 0 0 0
0 0 0 0 0 0 0 0 0 0 0 0 0 0 0 0 0 0 0 0 0 0 0 0 0 0 0 0 0 0 0 0 0 0 0 0 0 0 0 0 1 1 1
0 0 0 0 0 0 0 0 0 0 0 0 0 0 0 0 0 0 0 0 0 0 0 0 0 0 0 0 0 0 0 0 0 0 0 0 0 0 0 0 1 1 1
0 0 0 0 0 0 0 0 0 0 0 0 0 0 0 0 0 0 0 0 0 0 0 0 0 0 0 0 0 0 0 0 0 0 0 0 0 0 0 0 0 0 0
0 0 0 0 0 0 0 0 0 0 0 0 0 0 0 0 0 0 0 0 0 0 0 0 0 0 0 0 0 0 0 0 0 0 0 0 0 0 0 0 0 0 0
0 0 0 0 0 0 0 0 0 0 0 0 0 0 0 0 0 0 0 0 0 0 0 0 0 0 0 0 0 0 0 0 0 0 0 0 0 0 0 0 0 0 0
0 0 0 0 0 0 0 0 0 0 0 0 0 0 0 0 0 0 0 0 0 0 0 0 0 0 0 0 0 0 0 0 0 0 0 0 0 0 0 0 0 0 0
0 0 0 0 0 0 0 0 0 0 0 0 0 0 0 0 0 0 0 0 0 0 0 0 0 0 0 0 0 0 0 0 0 0 0 0 0 0 0 0 0 0 0
0 0 0 0 0 0 0 0 0 0 0 0 0 0 0 0 0 0 0 0 0 0 0 0 0 0 0 0 0 0 0 0 0 0 0 0 0 0 0 0 0 0 0
0 0 0 0 0 0 0 0 0 0 0 0 0 0 0 0 0 0 0 0 0 0 0 0 0 0 0 0 0 0 0 0 0 0 0 0 0 0 0 0 0 0 0
0 0 0 0 0 0 0 0 0 0 0 0 0 0 0 0 0 0 0 0 0 0 0 0 0 0 0 0 0 0 0 0 0 0 0 0 0 0 0 0 0 0 0
0 0 0 0 0 0 0 0 0 0 0 0 0 0 0 0 0 0 0 0 0 0 0 0 0 0 0 0 0 0 0 0 0 0 0 0 0 0 0 0 0 0 0
0 0 0 0 0 0 0 0 0 0 0 0 0 0 0 0 0 0 0 0 0 0 0 0 0 0 0 0 0 0 0 0 0 0 0 0 0 0 0 0 0 0 0
0 0 0 0 0 0 0 0 0 0 0 0 0 0 0 0 0 0 0 0 0 0 0 0 0 0 0 0 0 0 0 0 0 0 0 0 0 0 0 0 0 0 0
0 0 0 0 0 0 0 0 0 0 0 0 0 0 0 0 0 0 0 0 0 0 0 0 0 0 0 0 0 0 0 0 0 0 0 0 0 0 0 0 0 0 0
0 0 0 0 0 0 0 0 0 0 0 0 0 0 0 0 0 0 0 0 0 0 0 0 0 0 0 0 0 0 0 0 0 0 0 0 0 0 0 0 0 0 0
Wind_Speed
3 2 2 2 3 3 3 3 3 4 5 5 5 5 5 5 5 4 4 11 15 16 16 16 17 16 16 15 15 16 16 16 16 15 14 14 13 13 13 13 13 13 14
4 4 4 3 4 3 4 4 4 4 4 3 4 4 4 4 4 4 4 7 15 17 17 17 17 17 16 16 15 15 16 16 16 16 15 15 15 15 15 15 15 15 15
5 5 5 4 4 4 4 4 4 4 4 5 5 4 3 4 4 4 4 4 6 14 17 18 18 17 17 16 16 16 16 17 17 17 17 16 16 16 16 17 17 17 17
7 6 5 5 4 4 4 4 4 4 5 5 4 4 3 3 3 4 4 4 4 5 10 17 19 18 17 17 17 18 18 18 18 18 18 18 18 18 18 18 19 19 19
8 7 6 4 4 5 5 4 5 4 4 6 5 4 3 3 2 3 3 4 4 4 4 11 18 17 17 17 18 19 20 19 19 19 19 19 19 19 19 19 20 20 21
8 7 6 6 5 6 5 4 4 5 3 4 5 5 3 2 1 2 2 2 2 4 5 7 7 10 16 18 20 20 20 20 20 20 20 20 20 20 21 21 22 22 22
8 7 7 6 6 6 5 5 3 5 5 5 4 5 4 2 2 1 1 1 2 5 7 7 6 6 6 16 19 20 20 21 21 21 21 21 22 23 23 23 24 24 24
7 7 8 6 5 5 6 6 5 3 4 5 3 3 6 7 5 3 3 2 4 5 7 10 8 6 6 5 12 20 20 20 21 22 23 23 24 24 25 25 25 26 26
8 8 8 7 6 5 5 5 5 4 3 3 3 3 3 4 5 5 4 3 4 4 5 6 7 7 9 7 7 13 19 21 22 24 25 25 26 26 27 27 27 27 28
7 8 8 7 6 5 5 4 4 3 3 2 2 2 1 2 3 6 5 3 4 6 6 8 9 9 8 6 9 17 21 22 24 26 27 27 28 28 28 28 29 29 29
7 7 7 6 6 5 5 5 4 3 2 1 1 1 2 2 1 3 7 6 6 4 5 8 8 7 7 6 6 12 22 25 27 28 28 29 29 30 30 30 30 31 31
5 7 7 6 5 4 4 4 3 3 2 1 1 0 1 1 2 3 6 10 10 5 7 8 6 6 6 6 10 21 25 27 27 28 29 31 31 32 32 32 32 32 32
4 5 5 5 4 4 4 3 3 2 1 1 1 1 2 2 3 3 6 10 11 7 5 4 4 5 8 6 8 24 24 27 29 30 32 33 33 33 33 33 33 33 33
5 5 5 5 4 4 3 3 2 2 1 1 2 3 3 4 3 3 4 8 13 7 4 6 4 6 5 5 13 25 15 27 31 33 34 34 34 33 33 34 34 34 34
5 6 5 4 3 3 3 2 1 2 2 2 3 4 4 4 4 4 4 5 7 14 15 6 3 3 5 7 15 12 11 23 32 33 34 34 34 34 34 34 34 34 34
5 5 5 4 3 3 3 2 2 2 3 3 3 5 5 5 5 5 5 6 7 11 16 9 10 9 9 11 19 14 13 29 30 32 33 34 35 35 36 35 35 34 34
5 5 4 3 2 2 3 2 3 4 4 5 5 5 7 7 5 5 6 6 7 8 15 16 11 10 11 12 13 10 12 12 14 28 32 34 35 35 35 35 34 34 34
5 4 3 3 2 3 3 3 4 5 5 6 6 6 7 7 7 6 6 8 8 9 13 19 16 12 13 12 13 12 13 13 11 24 32 33 34 34 34 34 34 34 34
5 4 3 3 2 3 4 4 5 6 6 6 6 6 7 7 8 8 8 9 9 10 9 14 17 14 12 10 12 13 12 11 13 19 26 28 30 33 34 34 35 34 34
5 3 2 2 2 4 4 5 5 5 5 5 5 6 7 8 9 10 9 9 9 10 10 12 14 13 12 10 10 12 14 10 11 13 19 22 26 31 32 34 34 34 34
4 3 2 2 3 3 4 6 5 5 4 5 6 7 8 13 17 14 13 11 11 11 12 12 13 14 13 12 12 12 16 15 12 10 12 12 13 13 16 23 28 31 32
3 3 3 3 4 4 11 14 11 4 4 5 8 8 9 11 15 21 25 24 22 17 15 13 13 15 16 14 14 14 15 17 15 6 10 15 12 14 13 12 24 32 33
2 2 3 3 4 7 13 15 16 8 5 6 8 9 10 11 17 11 18 23 19 23 23 17 15 15 17 16 17 18 16 16 17 14 14 18 13 15 14 16 30 33 34
2 2 3 4 5 7 14 16 18 7 6 7 8 9 10 10 12 17 15 13 10 11 16 13 11 14 15 15 14 15 16 17 16 12 11 16 16 15 15 14 26 32 32
2 2 3 4 5 8 14 17 18 6 6 8 9 9 11 10 20 27 17 14 13 11 17 22 23 23 27 27 21 13 12 13 16 14 8 9 11 15 16 15 16 25 27
2 3 4 4 5 6 13 17 19 5 7 7 7 7 15 19 24 27 15 12 14 15 14 14 15 18 15 16 21 12 10 12 14 12 5 6 10 12 12 8 7 11 15
Wind_Direction
132 111 87 70 60 58 55 49 46 43 34 24 19 20 18 7 4 11 9 38 46 41 40 34 26 19 15 13 13 14 12 8 4 360 354 350 345 340 337 334 326 318 310
131 119 97 76 61 57 57 56 53 44 30 14 10 13 17 5 9 26 33 40 48 42 37 31 22 14 10 7 5 5 3 359 354 349 344 339 333 328 322 318 315 314 312
124 113 98 79 62 59 63 56 49 42 28 12 359 2 18 12 22 37 44 48 45 40 33 28 19 11 6 0 356 351 348 346 341 336 331 326 321 316 312 307 304 301 299
110 102 94 82 70 63 61 60 36 35 20 3 344 342 8 5 31 47 48 54 56 46 28 25 16 6 0 353 348 344 338 335 332 327 323 319 314 310 306 301 298 295 293
102 99 92 85 76 65 50 53 45 36 18 354 331 333 360 356 25 49 52 57 55 53 34 18 10 359 353 347 342 337 332 328 325 321 318 315 312 309 305 302 298 295 291
100 99 90 80 73 67 51 45 52 39 24 346 330 330 337 346 9 55 46 47 41 37 29 15 2 346 344 340 336 330 327 324 319 316 314 312 311 308 304 301 297 294 291
94 95 94 79 71 71 59 44 44 34 17 358 0 340 337 351 349 53 27 2 17 20 16 1 343 327 323 329 327 323 322 319 316 313 310 309 307 304 301 297 294 291 288
97 95 93 87 78 77 61 46 44 44 19 21 28 6 347 339 339 345 346 356 12 12 359 339 318 308 307 302 307 318 317 314 312 309 307 306 303 300 297 294 291 289 286
93 95 91 88 78 76 72 60 51 61 31 11 38 58 20 313 309 314 321 343 357 351 328 311 304 305 302 300 298 306 310 311 308 307 305 303 300 297 295 292 289 287 284
93 89 87 85 80 76 73 62 61 60 66 26 2 29 218 236 293 310 302 306 321 316 301 308 304 294 290 290 293 306 307 306 307 305 303 301 299 297 294 292 289 287 285
83 84 83 82 79 77 75 68 63 59 69 77 17 339 331 313 253 276 293 304 302 280 288 291 290 286 285 284 283 294 306 309 306 303 302 300 298 296 294 292 290 289 286
81 79 81 79 78 76 72 68 66 62 60 60 41 260 248 286 289 277 286 303 304 291 281 278 277 279 285 287 295 310 310 306 304 302 301 299 297 295 294 293 291 289 287
91 81 82 79 74 75 74 65 55 38 39 24 302 252 235 237 242 260 286 301 300 293 269 254 255 278 290 296 305 306 304 304 304 302 299 298 297 296 295 293 291 289 287
107 99 90 83 76 68 62 49 35 354 357 309 281 261 251 252 247 254 271 302 310 299 258 267 264 257 272 284 290 300 299 299 300 299 298 297 296 296 294 292 290 288 286
106 97 90 82 68 56 42 26 356 326 312 280 270 263 254 254 251 253 256 265 290 304 308 290 273 262 269 278 285 289 282 291 296 296 297 297 296 294 292 291 289 287 284
97 98 87 75 56 37 18 2 326 310 303 285 266 264 262 259 258 256 255 256 256 278 292 294 296 292 283 291 295 293 285 292 295 295 294 293 293 293 292 290 288 286 283
99 94 87 71 46 22 357 342 318 305 300 292 288 281 275 273 269 264 260 260 262 266 284 295 294 295 290 288 292 281 279 277 281 289 293 294 293 292 291 290 288 287 284
96 94 85 66 33 4 338 324 310 308 297 293 291 290 286 288 278 274 270 268 269 266 279 294 300 300 294 291 291 288 294 292 285 291 293 294 293 293 292 290 288 286 284
95 84 75 53 12 338 320 306 293 290 287 286 289 289 287 287 285 282 277 276 275 281 280 289 295 296 295 294 296 295 291 286 288 292 294 293 292 291 290 290 289 288 287
95 79 62 32 350 321 304 292 286 285 287 289 289 285 284 283 283 284 286 280 287 291 288 287 291 297 299 297 298 304 303 293 291 292 290 290 290 292 291 290 289 287 285
88 74 47 10 342 316 302 304 295 292 293 293 290 284 284 299 304 305 307 307 302 296 297 298 301 304 305 309 307 305 302 302 292 282 287 289 288 284 284 284 285 283 281
73 49 23 352 334 326 321 325 326 303 290 291 295 292 291 296 300 311 311 307 304 305 306 304 305 304 305 304 304 303 304 304 303 295 293 296 290 287 284 279 281 283 282
55 21 354 338 321 313 326 329 324 322 298 290 291 294 301 303 310 295 295 301 304 304 306 305 300 299 300 302 303 303 302 300 299 303 302 296 294 289 287 285 288 286 285
37 357 329 323 317 318 331 327 323 325 294 284 284 287 290 293 297 305 304 307 300 298 299 299 289 291 296 299 299 302 301 299 295 291 290 292 295 292 292 286 286 284 284
7 332 318 323 320 316 327 324 326 305 292 289 287 290 300 299 305 313 317 311 308 305 309 306 305 305 307 308 309 307 305 305 303 301 290 280 288 299 292 282 280 285 287
343 331 324 320 312 305 317 325 325 301 299 298 293 288 306 312 313 320 320 315 314 311 311 313 312 308 303 300 306 304 301 300 302 302 288 290 296 311 303 277 274 287 289